Regional Weather Roundup
Issued by NWS

Home | Current Version | Previous Version | Graphics & Text | Print | Product List | Glossary On
Versions: 1 2 3 4 5 6 7 8 9 10 11 12 13 14 15 16 17 18 19 20 21 22 23 24 25 26 27
000
ASUS45 KPSR 270410
RWRAZ

ARIZONA HOURLY REGIONAL WEATHER ROUNDUP
NATIONAL WEATHER SERVICE PHOENIX AZ
900 PM MST SUN MAR 26 2017

NOTE: FAIR INDICATES FEW OR NO CLOUDS BELOW 12,000 FEET WITH NO
SIGNIFICANT WEATHER AND/OR OBSTRUCTIONS TO VISIBILITY.

AZZ001>003-036-270500-
NORTHWEST ARIZONA

CITY           SKY/WX    TMP DP  RH WIND       PRES   REMARKS
BULLHEAD CITY  PTCLDY    75  32  20 S3        29.86S
KINGMAN        PTCLDY    55  20  25 S10       29.98R
$$

AZZ004>008-015-016-018-270500-
NORTH CENTRAL ARIZONA

CITY           SKY/WX    TMP DP  RH WIND       PRES   REMARKS
GRAND CANYON   MOCLDY    36  30  79 CALM      30.07S
WILLIAMS       CLEAR     45  27  49 SW9       30.09R
PRESCOTT       CLEAR     52  27  38 S10       30.05R
FLAGSTAFF      CLEAR     40  26  57 SW5       30.09R
PAYSON         PTCLDY    52  28  40 CALM      30.09R
PAGE           PTCLDY    57  34  41 CALM      29.96S
$$

AZZ009>014-017-270500-
NORTHEAST ARIZONA

CITY           SKY/WX    TMP DP  RH WIND       PRES   REMARKS
WINSLOW        PTCLDY    53  23  31 SW8       30.02R
SAINT JOHNS    MOCLDY    49  11  21 W6        30.04R
WINDOW ROCK    CLOUDY    46  26  45 CALM      30.06R
SHOW LOW       PTCLDY    43  23  45 S7        30.10R
$$

AZZ023-270500-
GREATER PHOENIX AREA

CITY           SKY/WX    TMP DP  RH WIND       PRES   REMARKS
PHOENIX        PTCLDY    73  31  21 CALM      29.89R
BUCKEYE        CLEAR     64  32  29 CALM      29.90R
LUKE AFB       CLEAR     68  41  38 CALM      29.89R
DEER VALLEY    CLEAR     68  32  26 E3        29.91R
SCOTTSDALE     CLEAR     70  34  26 NE3       29.92R
MESA-GATEWAY   PTCLDY    68  30  24 NE3       29.92R
CHANDLER       CLEAR     70  30  23 VRB6      29.91
$$

AZZ027-028-270500-
SOUTHWEST MARICOPA COUNTY AND PINAL COUNTY

CITY           SKY/WX    TMP DP  RH WIND       PRES   REMARKS
CASA GRANDE    NOT AVBL
GILA BEND      FAIR      69  24  18 SW5       29.89R
$$

AZZ503-504-507>509-270500-
SOUTHEAST ARIZONA

CITY           SKY/WX    TMP DP  RH WIND       PRES   REMARKS
TUCSON         CLEAR     68  22  17 N3        29.97R
DAVIS-MONTHAN  CLEAR     65  25  22 CALM      29.96R
NOGALES        CLEAR     57  26  30 CALM      30.02R
SIERRA VISTA   CLEAR     57  25  29 W10       30.06R
DOUGLAS        CLEAR     58  23  26 NW8       30.02R
SAFFORD        CLEAR     64  22  20 NW12      29.96R
$$

AZZ020-021-025-026-031-270500-
SOUTHWEST ARIZONA

CITY           SKY/WX    TMP DP  RH WIND       PRES   REMARKS
YUMA           CLEAR     73  40  30 SW3       29.88R
$$

CAZ031-033-041-043-047-048-061-270500-
SOUTHERN CALIFORNIA

CITY           SKY/WX    TMP DP  RH WIND       PRES   REMARKS
DOWNTOWN L.A.  PTCLDY    60  53  77 W3        30.03R
L.A. AIRPORT   PTCLDY    58  52  80 W9        30.04R
SAN DIEGO      MOCLDY    61  52  72 W6        30.06R
BURBANK        PTCLDY    59  48  67 S3        30.02R
ONTARIO        MOCLDY    59  52  77 SW7       30.02R
RIVERSIDE      CLEAR     58  52  80 W7        30.03R
PALM SPRINGS   CLEAR     72  47  40 NW17      29.91R
EL CENTRO NAS  CLEAR     71  41  33 W17       29.90R
IMPERIAL       CLEAR     69  47  45 W13       29.88R
BLYTHE         CLEAR     74  37  26 SW6       29.87R
NEEDLES        PTCLDY    74  28  18 SW8       29.87S
$$

NVZ020-UTZ003-270500-
SOUTHERN NEVADA-UTAH

CITY           SKY/WX    TMP DP  RH WIND       PRES   REMARKS
LAS VEGAS      PTCLDY    69  27  20 S6        29.87R
SALT LAKE CITY CLOUDY    51  31  46 SE9       29.94F
$$

NMZ009-TXZ055-270500-
NEW MEXICO-WEST TEXAS

CITY           SKY/WX    TMP DP  RH WIND       PRES   REMARKS
ALBUQUERQUE    PTCLDY    56  23  27 N6        30.01R
EL PASO        PTCLDY    68  17  14 W16       29.96R
$$


........................KEY........................
SKY/WX - SKY CONDITION/WEATHER
TMP    - TEMPERATURE IN FAHRENHEIT
DP     - DEW POINT IN FAHRENHEIT
RH     - RELATIVE HUMIDITY IN PERCENT
WIND   - DIRECTION AND SPEED IN MILES PER HOUR (MPH)
VRB    - VARIABLE WIND DIRECTION
PRES   - MEAN SEA LEVEL PRESSURE IN INCHES OF MERCURY
         F - FALLING PRESSURE   R - RISING PRESSURE
         S - STEADY PRESSURE
VSB    - VISIBILITY IN MILES
HX     - HEAT INDEX IN FAHRENHEIT
WCI    - WIND CHILL INDEX IN FAHRENHEIT
TC     - TEMPERATURE IN CELSIUS WHICH IS ALSO KNOWN AS
         TEMPERATURE IN CENTIGRADE
AFB    - AIR FORCE BASE
         LUKE AFB IS LUKE AIR FORCE BASE
         DAVIS-MONTHAN IS DAVIS-MONTHAN AIR FORCE BASE
NAS    - NAVAL AIR STATION
         EL CENTRO NAS IS EL CENTRO NAVAL AIR STATION
N/A    - NOT AVAILABLE





USA.gov is the U.S. government's official web portal to all federal, state and local government web resources and services.